Regional Weather Roundup
Issued by NWS

Home | Current Version | Previous Version | Text Only | Print | Product List | Glossary On
Versions: 1 2 3 4 5 6 7 8 9 10 11 12 13 14 15 16 17 18 19 20 21 22 23 24 25 26 27 28 29 30 31 32 33 34 35 36 37 38 39 40 41 42 43 44 45 46 47 48 49 50
000
ASUS45 KBOU 090607
RWRCO

WEATHER ROUNDUP FOR COLORADO
NATIONAL WEATHER SERVICE DENVER/BOULDER CO
1100 PM MST MON FEB 08 2016

NOTE: "FAIR" INDICATES FEW OR NO CLOUDS BELOW 12000 FEET WITH NO
SIGNIFICANT WEATHER AND/OR OBSTRUCTIONS TO VISIBILITY.

COZ001>005-013-030-031-090700-
...NORTHWEST COLORADO...

CITY           SKY/WX    TMP DP  RH WIND       PRES   REMARKS
CRAIG          CLOUDY     1  -3  83 CALM      30.54S
HAYDEN         CLOUDY    18  10  73 E12       30.51S WCI   5
MEEKER         CLOUDY    11   7  84 NE6       30.52S WCI   1
MOUNT WERNER   NOT AVBL
STEAMBOAT SPGS CLOUDY    15  13  90 CALM      30.52S
WALDEN         CLOUDY    12   9  85 SE8       30.48S WCI   1
$$

COZ006>008-011-090700-
...WEST CENTRAL VALLEYS...

CITY           SKY/WX    TMP DP  RH WIND       PRES   REMARKS
GRAND JUNCTION CLOUDY    19  17  92 E5        30.53S WCI  12
MONTROSE       CLOUDY    22  16  78 S7        30.54R WCI  13
EAGLE          CLEAR     16  12  86 E5        30.54R WCI   9
RIFLE          CLOUDY    19  13  77 S3        30.53R
DELTA          CLOUDY    26  21  83 CALM      30.53F
NUCLA          CLOUDY    30  21  69 SE6       30.52F WCI  24
$$

COZ017>023-064>068-090700-
...SOUTHWEST COLORADO...

CITY           SKY/WX    TMP DP  RH WIND       PRES   REMARKS
DURANGO        CLOUDY    22  17  81 E6        30.43S WCI  14
CORTEZ         CLOUDY    26  20  77 CALM      30.45S
PAGOSA SPRINGS CLOUDY    22  21  93 CALM      30.44S
TELLURIDE      NOT AVBL
WOLF CREEK PAS CLOUDY    28  -2  26 N13G22    30.54S WCI  18
$$

COZ009-010-012-014-032>034-037-058>063-090700-
...CENTRAL COLORADO...

CITY           SKY/WX    TMP DP  RH WIND       PRES   REMARKS
ASPEN          CLOUDY    17  11  77 S9        30.51S WCI   6
BUENA VISTA    CLOUDY    33  18  53 NW20G25   30.42R WCI  21
COPPER MTN     CLOUDY    23  10  58 W12G23    30.51S WCI  12
BERTHOUD PASS  MOCLDY    10   1  67 N15G24    30.46S WCI  -6
COTTONWOOD PAS NOT AVBL
GUNNISON       CLOUDY     1 -17  42 CALM      30.56R
KREMMLING      CLOUDY     7   3  85 CALM      30.54R
LEADVILLE      CLOUDY    16  12  84 NE8       30.47S WCI   5
MONARCH PASS   CLOUDY    19  12  73 MISG      30.59S
SALIDA         NOT AVBL
SUNLIGHT       CLOUDY    25  16  68 NW6         N/A  WCI  18
WILKERSON PASS CLOUDY    28   0  29 NW13G26   30.46S WCI  18
$$

COZ069>075-090700-
...SAN LUIS VALLEY/SANGRE DE CRISTO MOUNTAINS...

CITY           SKY/WX    TMP DP  RH WIND       PRES   REMARKS
ALAMOSA        CLOUDY    20  17  88 W6        30.42F WCI  12
LA VETA PASS   CLOUDY    30  10  43 MISG      30.43F
SAGUACHE       CLOUDY    32  19  59 NW16G22   30.45R WCI  21
$$

COZ035-036-038>040-090700-
...NORTHERN COLORADO FRONT RANGE...

CITY           SKY/WX    TMP DP  RH WIND       PRES   REMARKS
DENVER INTL AP CLOUDY    29  20  69 S12       30.30F WCI  19
DMNS CITY PARK   N/A     33  22  64 S9        30.31F WCI  26
AURORA         PTCLDY    29  23  78 S12       30.31F WCI  19
FRONT RANGE AP   N/A     27  19  74 S8        30.31F WCI  18
ERIE MUNI ARPT CLOUDY    32  24  70 SW3       30.29F
BOULDER MUN AP CLOUDY    32  25  74 CALM      30.29F
CENTENNIAL     CLOUDY    33  22  63 S10       30.31F WCI  25
BROOMFIELD     CLOUDY    37  23  56 S7        30.30F
FORT COLLINS   CLOUDY    28  21  74 N3        30.31F
LONGMONT       CLOUDY    28  22  77 W5        30.32S WCI  23
$$

COZ041-046-047-076>085-087-088-090700-
...PIKES PEAK/PALMER DIVIDE AND SOUTHERN FOOTHILLS...

CITY           SKY/WX    TMP DP  RH WIND       PRES   REMARKS
COLO. SPRINGS  CLOUDY    24  17  74 N5        30.36F WCI  18
A. F. ACADEMY  CLOUDY    18  14  84 N7        30.34F WCI   9
SCHRIEVER AFB  NOT AVBL
ELLICOTT       NOT AVBL
FALCON         NOT AVBL
FORT CARSON    CLOUDY    28  21  74 NW8       30.34F WCI  20
LIMON          CLOUDY    26  19  74 W13       30.31F WCI  15
MONUMENT HILL  CLOUDY    23  16  74 S7        30.36S WCI  15
TRINIDAD       CLOUDY    27  19  72 SW9       30.36F WCI  18
$$

COZ042>045-048>051-090-091-090700-
...NORTHEAST COLORADO...

CITY           SKY/WX    TMP DP  RH WIND       PRES   REMARKS
GREELEY ARPT   CLOUDY    25  19  80 W5        30.31S WCI  19
AKRON          CLEAR     36  25  64 NW20      30.26F
BURLINGTON     CLOUDY    32  24  72 NW14      30.27R WCI  22
WRAY           CLOUDY    36  29  74 W16G22    30.25S
STERLING       CLEAR     36  28  75 NW12      30.26S
HOLYOKE        CLOUDY    37  28  70 NW14      30.24R
FORT MORGAN    CLEAR     39  24  56 NW21      30.30S
$$

COZ086-089-092>099-090700-
...SOUTHEAST COLORADO...

CITY           SKY/WX    TMP DP  RH WIND       PRES   REMARKS
PUEBLO         CLOUDY    29  23  78 S5        30.37R WCI  24
LA JUNTA       CLOUDY    32  24  72 W9        30.35F WCI  24
LAMAR          CLEAR     32  25  75 W10       30.32F WCI  24
SPRINGFIELD      N/A     31  22  69 W13       30.32F WCI  21
$$



USA.gov is the U.S. government's official web portal to all federal, state and local government web resources and services.